[[{"header":{"parameterUnit":"m.s-1","parameterCategory":1,"la1":30.2991,"la2":30.254,"lo1":-89.0895,"lo2":-89.0444,"dy":0.0017,"dx":0.0017,"nx":28,"ny":28,"refTime":"2024-04-28T09:00:00:Z","depth":0,"parameterNumber":2,"parameterNumberName":"U-component_of_WINDS"},"data":[0,0,0,0,0,0,0,0,0,0,0,0,0,0,0,0,0,0,0,0,0,0,0,0,0,0,0,0,0,0,0,0,0,0,0,0,0,0,0,0,0,0,0,0,0,0,0,0,0,0,0,0,0,0,0,0,0,0,-7.3068,-7.3069,0,-7.3128,-7.3129,-7.313,-7.3044,-7.3041,-7.3038,-7.3036,-7.3093,-7.3097,-7.3101,0,0,0,0,0,0,0,0,0,0,0,0,0,-7.2878,-7.2882,-7.3068,-7.3069,-7.307,-7.3128,-7.3129,-7.313,-7.3045,-7.3041,-7.3038,-7.3034,-7.3091,-7.3096,-7.3102,0,0,0,0,0,0,0,0,0,0,0,0,0,-7.2951,-7.2883,-7.3068,-7.3035,-7.3032,-7.3128,-7.3129,-7.313,-7.3046,-7.3041,-7.3037,-7.3032,-7.309,-7.3096,-7.3102,-7.3232,0,0,-7.3122,-7.3125,0,0,0,0,0,0,0,0,-7.2947,-7.2958,-7.3039,-7.3037,-7.3035,-7.3074,-7.3083,-7.3164,-7.3047,-7.304,-7.3035,-7.303,-7.309,-7.3096,-7.3117,-7.3235,-7.3238,-7.3123,-7.3127,-7.3129,-7.3131,0,0,0,0,0,0,0,-7.2942,-7.2955,-7.3092,-7.304,-7.3037,-7.3016,-7.3021,-7.3098,-7.309,-7.3041,-7.3035,-7.3043,-7.3088,-7.3111,-7.3118,-7.3238,-7.3122,-7.3128,-7.3132,-7.3135,-7.3467,-7.3471,0,0,0,0,0,0,-7.2942,-7.2952,-7.309,-7.3094,-7.2979,-7.3023,-7.3029,-7.3066,-7.3089,-7.3088,-7.3047,-7.3039,-7.3102,-7.311,-7.3119,-7.3272,-7.3129,-7.3135,-7.3139,-7.3462,-7.3468,-7.3473,0,0,0,0,0,0,-7.2938,-7.2955,-7.3087,-7.3021,-7.3036,-7.3031,-7.3073,-7.307,-7.3092,-7.3093,-7.3091,-7.3072,-7.3099,-7.311,-7.3205,-7.3273,-7.3138,-7.3144,-7.3456,-7.3464,-7.347,-7.3579,0,0,0,0,0,0,-7.2933,-7.2954,-7.3004,-7.3023,-7.304,-7.3173,-7.3078,-7.3074,-7.3104,-7.3095,-7.3116,-7.3116,-7.3096,-7.3196,-7.3212,-7.3279,-7.3149,-7.345,-7.3459,-7.3468,-7.3569,-7.3589,-7.3607,0,0,0,0,0,-7.2926,-7.3031,-7.3007,-7.3024,-7.3102,-7.3177,-7.3187,-7.3164,-7.311,-7.316,-7.3161,-7.3115,-7.3265,-7.3207,-7.3223,-7.3294,-7.3445,-7.3457,-7.3467,-7.3561,-7.3586,-7.3606,0,0,0,0,0,0,-7.3017,-7.3032,-7.3006,-7.312,-7.3148,-7.3163,-7.3223,-7.319,-7.3233,-7.3221,-7.319,-7.3196,-7.3297,-7.3306,-7.3241,-7.3422,-7.3346,-7.3361,-7.3411,-7.3434,-7.3453,-7.3446,-7.3155,0,0,0,0,0,-7.3051,-7.3111,-7.3122,-7.3221,-7.3237,-7.3229,-7.326,-7.3241,-7.3268,-7.3279,-7.3286,-7.3314,-7.3367,-7.3402,-7.3451,-7.3573,-7.3575,-7.363,-7.3648,-7.3663,-7.3675,-7.3739,-7.3763,-7.351,-7.3509,-7.3509,0,0,-7.312,-7.3136,-7.3176,-7.324,-7.3259,-7.3321,-7.3239,-7.3308,-7.3353,-7.3289,-7.3378,-7.3386,-7.3414,-7.3523,-7.3572,-7.3533,-7.3747,-7.3678,-7.369,-7.3693,-7.3753,-7.3777,-7.3799,-7.3517,-7.3516,-7.3514,0,0,-7.3277,-7.3297,-7.3381,-7.3404,-7.3435,-7.343,-7.3451,-7.3471,-7.3474,-7.3565,-7.3517,-7.3572,-7.3664,-7.3686,-7.3709,-7.388,-7.3839,-7.3897,-7.3992,-7.4055,-7.4075,-7.4092,-7.415,-7.4172,-7.391,-7.391,-7.391,0,-7.3357,-7.345,-7.3428,-7.3502,-7.3531,-7.3479,-7.3564,-7.3586,-7.3632,-7.3653,-7.3611,-7.3727,-7.3742,-7.3855,-7.3897,-7.3919,-7.394,-7.3891,-7.4074,-7.4091,-7.4107,-7.4162,-7.4185,-7.3917,-7.3916,-7.3915,-7.3915,0,-7.3547,-7.3613,-7.3678,-7.3725,-7.3762,-7.3841,-7.3831,-7.3871,-7.385,-7.3849,-7.3942,-7.396,-7.4012,-7.4038,-7.4017,-7.4149,-7.4124,-7.4079,-7.4001,-7.4138,-7.4189,-7.4211,-7.3926,-7.3924,-7.3922,-7.392,0,0,-7.3757,-7.3795,-7.3819,-7.384,-7.3873,-7.3922,-7.4,-7.4053,-7.4087,-7.4122,-7.4184,-7.4266,-7.4225,-7.4252,-7.4234,-7.429,-7.4422,-7.4238,-7.4238,-7.4268,-7.4566,-7.4596,-7.4621,-7.4398,-7.4402,-7.4405,-7.4562,0,-7.3912,-7.4045,-7.403,-7.4157,-7.4217,-7.4171,-7.4238,-7.4266,-7.4268,-7.4319,-7.4321,-7.4378,-7.4322,-7.4337,-7.4392,-7.4394,-7.448,-7.4384,-7.4453,-7.4455,-7.4442,-7.4649,-7.4681,-7.4828,-7.4583,-7.4586,-7.4589,0,-7.4108,-7.4152,-7.4286,-7.4311,-7.4336,-7.4396,-7.4444,-7.4494,-7.4525,-7.4522,-7.4555,-7.4528,-7.4605,-7.4531,-7.4635,-7.457,-7.4598,-7.4605,-7.461,-7.4611,-7.4527,-7.4652,-7.4875,-7.4896,-7.462,-7.4618,-7.4616,0,-7.4244,-7.4337,-7.4429,-7.4449,-7.4482,-7.4525,-7.4541,-7.4568,-7.4601,-7.4643,-7.4664,-7.4714,-7.4741,-7.478,-7.4768,-7.4715,-7.4875,-7.4799,-7.4873,-7.4873,-7.4904,-7.4901,-7.5131,-7.4931,-7.493,-7.493,-7.4929,0,-7.4415,-7.4498,-7.449,-7.4546,-7.4638,-7.4621,-7.4712,-7.4722,-7.4747,-7.4803,-7.4768,-7.4822,-7.4804,-7.4857,-7.4848,-7.4935,-7.4949,-7.4948,-7.4943,-7.4948,-7.4948,-7.4962,-7.495,-7.4936,-7.4934,-7.4933,-7.4932,0,-7.4579,-7.4578,-7.4675,-7.47,-7.4708,-7.4774,-7.4795,-7.4848,-7.485,-7.4922,-7.4938,-7.494,-7.5001,-7.4994,-7.5062,-7.5056,-7.5163,-7.5149,-7.5153,-7.5148,-7.5221,-7.5213,-7.5464,-7.5495,-7.5278,-7.528,-7.5282,0,-7.4686,-7.4749,-7.4782,-7.4818,-7.4837,-7.4896,-7.4931,-7.4918,-7.4955,-7.4997,-7.5044,-7.5102,-7.5147,-7.5247,-7.5254,-7.5306,-7.529,-7.5375,-7.5297,-7.53,-7.5287,-7.5281,-7.5287,-7.5388,-7.539,-7.5392,-7.5394,0,-7.4875,-7.4872,-7.4924,-7.4977,-7.5019,-7.5059,-7.5096,-7.5127,-7.5118,-7.5162,-7.5224,-7.526,-7.5331,-7.5388,-7.5438,-7.5453,-7.5422,-7.542,-7.5439,-7.5442,-7.544,-7.5439,-7.519,-7.5412,-7.541,-7.5409,-7.5408,-7.5407,-7.5011,-7.5065,-7.5097,-7.5156,-7.5183,-7.5219,-7.527,-7.528,-7.5332,-7.5389,-7.5379,-7.5449,-7.548,-7.5544,-7.5565,-7.5619,-7.5588,-7.5617,-7.5623,-7.5629,-7.5636,-7.5436,-7.5629,-7.5628,-7.5628,-7.5627,-7.5627,0,-7.5196,-7.5215,-7.527,-7.5323,-7.537,-7.5341,-7.5381,-7.5421,-7.5483,-7.5516,-7.5563,-7.5635,-7.5692,-7.5706,-7.576,-7.5801,-7.5788,-7.5815,-7.5809,-7.5813,-7.5662,-7.5639,-7.5824,-7.5824,-7.5824,-7.5824,-7.5824,-7.5824,-7.5297,-7.5386,-7.5388,-7.549,-7.5509,-7.5578,-7.5603,-7.5636,-7.5662,-7.5745,-7.5793,-7.5802,-7.5827,-7.5884,-7.5934,-7.5937,-7.5957,-7.5989,-7.5986,-7.5844,-7.5824,-7.5804,-7.5782,-7.5995,-7.5995,-7.6131,-7.6132,-7.6133]},{"header":{"parameterUnit":"m.s-1","parameterCategory":1,"la1":30.2991,"la2":30.254,"lo1":-89.0895,"lo2":-89.0444,"dy":0.0017,"dx":0.0017,"nx":28,"ny":28,"refTime":"2024-04-28T09:00:00:Z","depth":0,"parameterNumber":3,"parameterNumberName":"V-component_of_WINDS"},"data":[0,0,0,0,0,0,0,0,0,0,0,0,0,0,0,0,0,0,0,0,0,0,0,0,0,0,0,0,0,0,0,0,0,0,0,0,0,0,0,0,0,0,0,0,0,0,0,0,0,0,0,0,0,0,0,0,0,0,3.7021,3.7021,0,3.7023,3.7023,3.7023,3.6992,3.6991,3.699,3.699,3.6988,3.6988,3.6989,0,0,0,0,0,0,0,0,0,0,0,0,0,3.6989,3.699,3.7021,3.7021,3.7021,3.7023,3.7023,3.7023,3.6992,3.6991,3.699,3.6989,3.6987,3.6988,3.6989,0,0,0,0,0,0,0,0,0,0,0,0,0,3.6998,3.699,3.7021,3.7006,3.7005,3.7023,3.7023,3.7023,3.6992,3.6991,3.699,3.6989,3.6987,3.6988,3.6989,3.7021,0,0,3.6992,3.6993,0,0,0,0,0,0,0,0,3.6998,3.6999,3.7008,3.7007,3.7006,3.7006,3.7011,3.7022,3.6993,3.6997,3.699,3.6988,3.6994,3.6995,3.6998,3.702,3.702,3.6992,3.6993,3.6994,3.6994,0,0,0,0,0,0,0,3.6997,3.6999,3.7022,3.7008,3.7007,3.6999,3.6999,3.7013,3.7002,3.6996,3.6994,3.6995,3.6993,3.6997,3.6997,3.702,3.6992,3.6993,3.6994,3.6994,3.7071,3.7072,0,0,0,0,0,0,3.6999,3.6999,3.7022,3.7022,3.6999,3.7,3.7,3.7007,3.7002,3.7,3.6996,3.6994,3.6996,3.6996,3.6997,3.7035,3.6994,3.6995,3.6995,3.707,3.7071,3.7073,0,0,0,0,0,0,3.6998,3.7001,3.7022,3.701,3.7012,3.7002,3.701,3.7008,3.7011,3.7002,3.7,3.7002,3.6995,3.6996,3.7016,3.7034,3.6995,3.6996,3.7068,3.707,3.7072,3.7109,0,0,0,0,0,0,3.6997,3.7001,3.7013,3.701,3.7012,3.704,3.7011,3.7009,3.7014,3.701,3.7007,3.7005,3.6994,3.7014,3.7017,3.7035,3.6997,3.7066,3.7069,3.7071,3.7106,3.7112,3.7117,0,0,0,0,0,3.6996,3.7022,3.7014,3.7017,3.7027,3.7042,3.7043,3.7031,3.7015,3.7027,3.7022,3.7005,3.7032,3.7017,3.7019,3.7038,3.7065,3.7068,3.7071,3.7104,3.7111,3.7117,0,0,0,0,0,0,3.7024,3.7021,3.7012,3.7038,3.7041,3.7036,3.705,3.7039,3.7044,3.7041,3.7025,3.7024,3.7047,3.7045,3.7027,3.7069,3.7046,3.705,3.7069,3.7076,3.7082,3.7081,3.6998,0,0,0,0,0,3.7034,3.7047,3.7043,3.7066,3.7068,3.706,3.7065,3.7056,3.7058,3.7058,3.7054,3.7056,3.7065,3.7071,3.7078,3.7107,3.7105,3.7121,3.7127,3.7131,3.7134,3.715,3.7157,3.7083,3.7083,3.7083,0,0,3.7053,3.7053,3.7061,3.7072,3.7073,3.7086,3.706,3.7075,3.7084,3.706,3.7079,3.7077,3.7077,3.7102,3.7113,3.71,3.7155,3.7135,3.7139,3.7139,3.7154,3.7161,3.7167,3.7085,3.7085,3.7085,0,0,3.7095,3.7096,3.7116,3.7119,3.7122,3.7116,3.7122,3.712,3.7118,3.7138,3.7121,3.7132,3.7147,3.7149,3.7152,3.7199,3.7183,3.7202,3.723,3.7246,3.7251,3.7257,3.7273,3.7279,3.7205,3.7205,3.7205,0,3.7117,3.7137,3.7127,3.7144,3.7149,3.7131,3.7151,3.7154,3.7159,3.7163,3.715,3.7171,3.717,3.7195,3.7207,3.721,3.7215,3.7201,3.7252,3.7257,3.7261,3.7277,3.7283,3.7207,3.7207,3.7207,3.7206,0,3.7165,3.718,3.7196,3.7204,3.7211,3.7229,3.7222,3.723,3.7222,3.7218,3.7239,3.7238,3.7246,3.7252,3.7243,3.7277,3.727,3.7255,3.723,3.7271,3.7285,3.7291,3.721,3.7209,3.7209,3.7208,0,0,3.7221,3.7226,3.7232,3.7236,3.724,3.7251,3.7269,3.7279,3.7287,3.7292,3.7307,3.7323,3.731,3.7313,3.7305,3.7319,3.7357,3.7302,3.7302,3.7312,3.7395,3.7405,3.7412,3.7348,3.7349,3.735,3.7394,0,3.7261,3.7293,3.7287,3.7318,3.7332,3.7317,3.7333,3.7337,3.7335,3.7346,3.7343,3.7354,3.7337,3.7339,3.7353,3.7349,3.7373,3.7346,3.736,3.7361,3.7359,3.7419,3.743,3.7472,3.74,3.7401,3.7402,0,3.7311,3.7321,3.7355,3.7359,3.7364,3.7379,3.7389,3.74,3.7405,3.7402,3.7409,3.7398,3.7416,3.7394,3.7419,3.7401,3.7407,3.7407,3.7408,3.7407,3.7382,3.742,3.7485,3.7491,3.741,3.741,3.7409,0,3.7348,3.737,3.7393,3.7397,3.7403,3.7414,3.7416,3.7421,3.7428,3.7436,3.7441,3.7451,3.7456,3.7464,3.7457,3.7442,3.7483,3.746,3.7481,3.7481,3.7489,3.7488,3.7555,3.7495,3.7495,3.7495,3.7494,0,3.7393,3.7414,3.741,3.7424,3.7448,3.7441,3.7464,3.7465,3.7469,3.7483,3.7471,3.7484,3.7474,3.7486,3.7481,3.7503,3.7505,3.7503,3.7501,3.7503,3.7504,3.7506,3.7502,3.7496,3.7496,3.7496,3.7495,0,3.7437,3.7436,3.746,3.7465,3.7467,3.7484,3.7488,3.7501,3.75,3.7518,3.7521,3.7518,3.7533,3.7527,3.7541,3.7538,3.7566,3.756,3.7564,3.7562,3.7583,3.7581,3.7653,3.7662,3.7597,3.7598,3.7598,0,3.7465,3.7481,3.7489,3.7499,3.7503,3.7518,3.7527,3.7521,3.753,3.7539,3.7551,3.7565,3.7575,3.7599,3.7597,3.7609,3.7603,3.7628,3.7604,3.7607,3.7603,3.7601,3.7603,3.7631,3.7632,3.7633,3.7633,0,3.7515,3.7514,3.7528,3.7542,3.7553,3.7563,3.7572,3.758,3.7575,3.7586,3.7602,3.7611,3.7627,3.7641,3.7652,3.7653,3.7642,3.7641,3.7646,3.7648,3.765,3.7649,3.7576,3.7639,3.7638,3.7638,3.7637,3.7637,3.7551,3.7566,3.7575,3.7591,3.7598,3.7607,3.7621,3.7622,3.7636,3.765,3.7646,3.7664,3.7671,3.7685,3.7689,3.7702,3.7692,3.77,3.7702,3.7704,3.7706,3.7649,3.7704,3.7704,3.7704,3.7704,3.7704,0,3.76,3.7606,3.7621,3.7636,3.7649,3.7641,3.7651,3.7662,3.7678,3.7686,3.7698,3.7717,3.7731,3.7732,3.7746,3.7756,3.7752,3.776,3.7758,3.7759,3.7714,3.7708,3.7763,3.7763,3.7763,3.7763,3.7763,3.7763,3.7627,3.7652,3.7653,3.7681,3.7687,3.7706,3.7713,3.7722,3.7728,3.775,3.7763,3.7765,3.777,3.7784,3.7797,3.7797,3.7802,3.7812,3.781,3.7768,3.7762,3.7756,3.775,3.7813,3.7814,3.7853,3.7854,3.7854]}]]